Regional Weather Roundup
Issued by NWS

Home | Current Version | Previous Version | Text Only | Print | Product List | Glossary Off
Versions: 1 2 3 4 5 6 7 8 9 10 11 12 13 14 15 16 17 18 19 20 21 22 23 24 25 26 27 28 29 30 31 32 33 34 35 36 37 38 39 40 41 42 43 44 45 46 47 48 49 50

000
ASUS43 KMKX 241600
RWRWI

WISCONSIN REGIONAL WEATHER ROUNDUP
NATIONAL WEATHER SERVICE MILWAUKEE/SULLIVAN WI
1100 AM CDT SUN SEP 24 2017

NOTE: "FAIR" INDICATES FEW OR NO CLOUDS BELOW 12,000 FEET WITH NO
SIGNIFICANT WEATHER AND/OR OBSTRUCTIONS TO VISIBILITY.

WIZ001-002-006>008-014>016-023>028-241700-
NORTHWEST WISCONSIN

CITY           SKY/WX    TMP DP  RH WIND       PRES   REMARKS
SUPERIOR ARPT  CLOUDY    63  63 100 NE5       29.94S FOG
ASHLAND        SUNNY     83  65  54 S12G21    29.95F HX  85
HAYWARD        SUNNY     80  65  59 S8        29.98F HX  82
SIREN          CLOUDY    75  65  71 S6        29.96S
CUMBERLAND     SUNNY     77  63  61 S9        29.99S
RICE LAKE      SUNNY     81  64  56 S7        30.00F HX  82
CHETEK         PTSUNNY   78  67  67 MISG      30.00S HX  80
LADYSMITH      SUNNY     82  63  53 S12       30.03S HX  83
EAU CLAIRE     SUNNY     83  62  49 S14       29.99S HX  84
MENOMONIE      SUNNY     82  66  59 S9        29.99S HX  84
NEW RICHMOND   MOSUNNY   77  65  65 S9        29.97F
OSCEOLA        MOSUNNY   78  65  63 S12G17    29.98F HX  80
$$

WIZ003>005-009-010-017-018-241700-
NORTH CENTRAL WISCONSIN

CITY           SKY/WX    TMP DP  RH WIND       PRES   REMARKS
MANITOWISH WTR NOT AVBL
ARBOR VITAE    SUNNY     80  67  64 S9        30.06S HX  82
WOODRUFF       SUNNY     80  67  64 S9        30.06S HX  82
RHINELANDER    SUNNY     82  65  56 SW9       30.07F HX  84
EAGLE RIVER    SUNNY     80  62  54 SW7       30.06F HX  81
LAND O LAKES   SUNNY     81  62  53 S7        30.08F HX  82
PHILLIPS       MOSUNNY   80  65  59 S12       30.03S HX  82
TOMAHAWK       SUNNY     79  64  60 S3        30.06F HX  80
MEDFORD        SUNNY     79  63  58 S8        30.05F HX  80
MERRILL        SUNNY     82  66  57 SW6       30.06F HX  85
$$

WIZ029-030-035-036-043>047-241700-
CENTRAL WISCONSIN

CITY           SKY/WX    TMP DP  RH WIND       PRES   REMARKS
WAUSAU         SUNNY     82  65  56 S6        30.04F HX  84
MOSINEE        SUNNY     81  66  61 S7        30.07S HX  83
MARSHFIELD     SUNNY     82  62  50 SW10      30.05S HX  83
STEVENS POINT  SUNNY     81  65  57 S8        30.06S HX  82
WAUPACA        SUNNY     83  68  59 SE6       30.06F HX  86
WAUTOMA        SUNNY     83  68  60 S6        30.06F HX  86
WISC RAPIDS    SUNNY     84  67  56 SW6       30.06S HX  86
CAMP DOUGLAS   NOT AVBL
$$

WIZ011>013-019>022-031-037>040-048>050-241700-
NORTHEAST WISCONSIN

CITY           SKY/WX    TMP DP  RH WIND       PRES   REMARKS
ANTIGO         SUNNY     80  66  62 S7        30.09S HX  82
SHAWANO        SUNNY     84  67  55 S6        30.06F HX  86
OCONTO         SUNNY     81  68  64 S3        30.06S HX  84
STURGEON BAY   SUNNY     84  69  60 S8        30.08S HX  88
GREEN BAY      SUNNY     84  69  60 S8        30.07S HX  88
MANITOWOC      SUNNY     78  70  76 E7        30.08F HX  80
APPLETON       SUNNY     81  63  54 S7        30.06F HX  82
CLINTONVILLE   SUNNY     82  66  57 S6        30.06F HX  85
OSHKOSH        SUNNY     84  68  58 S9        30.07S HX  87
$$

WIZ032>034-041-042-053>061-241700-
SOUTHWEST WISCONSIN

CITY           SKY/WX    TMP DP  RH WIND       PRES   REMARKS
LA CROSSE      SUNNY     83  64  52 S9        30.01S HX  84
SPARTA         SUNNY     83  63  49 S7        30.03F HX  84
VIROQUA        SUNNY     82  63  52 S9        30.05F HX  83
BOSCOBEL       SUNNY     86  65  49 CALM      30.03F HX  88
PRAIRIE DU CHI SUNNY     81  63  54 CALM      30.02F HX  82
PLATTEVILLE    SUNNY     84  63  48 S10       30.07S HX  85
$$

WIZ056-057-062-063-064-067-068-241700-
SOUTH CENTRAL WISCONSIN

CITY           SKY/WX    TMP DP  RH WIND       PRES   REMARKS
REEDSBURG      SUNNY     83  64  51 S9        30.06S HX  85
BARABOO/DELLS  SUNNY     82  61  47 S9        30.07S HX  83
LONE ROCK      NOT AVBL
MINERAL POINT  SUNNY     84  64  51 S7        30.08S HX  86
MADISON        SUNNY     83  65  54 S13       30.07S HX  85
MIDDLETON      SUNNY     84  63  48 S10       30.07F HX  85
WATERTOWN      SUNNY     83  66  56 S7        30.08S HX  85
MONROE         SUNNY     82  61  47 S13       30.08F HX  83
JANESVILLE     SUNNY     86  63  45 S6        30.08S HX  87
$$

WIZ051-052-058>065-066-070>072-241700-
SOUTHEAST WISCONSIN

CITY           SKY/WX    TMP DP  RH WIND       PRES   REMARKS
MILWAUKEE      SUNNY     88  65  46 VRB7      30.08F HX  90
WAUKESHA       SUNNY     82  63  51 SW8       30.11S HX  83
MILWAUKEE/TIMM SUNNY     84  59  42 S7        30.10S HX  84
RACINE         SUNNY     88  64  44 SW10      30.10F HX  89
BURLINGTON     SUNNY     86  65  49 S8        30.09F HX  88
KENOSHA        SUNNY     88  62  41 S10       30.09F HX  88
FOND DU LAC    SUNNY     85  64  49 S7        30.08S HX  86
SHEBOYGAN      SUNNY     84  71  65 S5        30.08F HX  89
WEST BEND        N/A     82  64  54 S7        30.09S HX  84
JUNEAU         SUNNY     80  66  62 S6        30.10S HX  82
$$

LSZ147-162-241700-
LAKE SUPERIOR

STATION/POSITION TIME  TEMP    WIND        PRES    WAVE
                       AIR SEA DIR/SP/G            HT/PER
                 (UTC) (F)     (DEG/KT/KT) (MB)    (FT/S)
W MID LAKE BUOY  1450   59 55   60/  6/  6 1014.2F   1/ 3
DEVILS ISLAND    1500   64     100/  6/  7 1014.1F
SAXON HARBOR     1530   82     200/  6/ 11 1014.2R
$$

LMZ867-665-643>646-241700-
LAKE MICHIGAN

STATION/POSITION TIME  TEMP    WIND        PRES    WAVE
                       AIR SEA DIR/SP/G            HT/PER
                 (UTC) (F)     (DEG/KT/KT) (MB)    (FT/S)
S GREEN BAY BUOY 1530   72 69  220/  4/  4 1018.0S
N MID LAKE BUOY  1450   69 67  190/ 10/ 12 1019.0F   1
NORTHPORT PIER   1540   74     140/  7/  9 1017.9S
KEWAUNEE LAKESHO 1530   66     170/  7/  7 1017.9S
SHEBOYGAN LAKESH 1500   71     160/ 11/ 12 1018.3F
PORT WASHINGTON  1540   74     160/  2/  4 1019.6S
ATWATER BUOY     1409   67 65  170/  6/  6 1019.2S
MILWAUKEE LAKESH 1520   74      CALM  /  1   N/A
S MID LAKE BUOY  1450   72 71  180/  8/ 10 1019.5R   1/ 3
KENOSHA   LAKESH 1500   74     170/  6/  8 1018.6
$$

TC  - TEMPERATURE IN CELSIUS
VSB - VISIBILITY IN STATUTE MILES
WCI - WIND CHILL INDEX
HX  - HEAT INDEX




USA.gov is the U.S. government's official web portal to all federal, state and local government web resources and services.